Location: La Pernelle
(49.6188°N, 1.2999°W)
Time: 11:21:26
(UTC+00:00)

Cosmos 1725 Rocket - Pass Details

Date: 12 June 2021
Orbit: 962 x 990 km, 82.9° (Epoch: 27 July)

Event Time Altitude Azimuth Distance (km) Brightness Sun altitude
Rises 22:16:31 0° 351° (N) 3,664 8.6 -13.3°
Reaches altitude 10° 22:19:03 10° 353° (N) 2,712 7.6 -13.4°
Maximum altitude 22:25:15 74° 79° (E) 1,004 4.0 -13.9°
Enters shadow 22:29:42 20° 162° (SSE) 2,071 5.1 -14.1°
